TimeCDT,TemperatureF,Dew PointF,Humidity,Sea Level PressureIn,VisibilityMPH,Wind Direction,Wind SpeedMPH,Gust SpeedMPH,PrecipitationIn,Events,Conditions,WindDirDegrees,DateUTC
12:52 AM,39.0,33.1,79,29.77,-9999.0,SSE,8.1,-,N/A,,Unknown,150,2012-10-20 05:52:00
1:52 AM,37.9,33.1,83,29.76,-9999.0,SE,6.9,-,N/A,,Unknown,140,2012-10-20 06:52:00
2:52 AM,36.0,32.0,86,29.75,-9999.0,SE,8.1,-,N/A,,Unknown,130,2012-10-20 07:52:00
3:52 AM,35.1,32.0,89,29.73,-9999.0,ESE,8.1,-,N/A,,Unknown,120,2012-10-20 08:52:00
4:52 AM,35.1,32.0,89,29.70,-9999.0,ESE,9.2,-,N/A,,Unknown,120,2012-10-20 09:52:00
5:52 AM,35.1,33.1,92,29.70,-9999.0,ESE,10.4,-,N/A,,Unknown,120,2012-10-20 10:52:00
6:52 AM,34.0,32.0,92,29.70,-9999.0,ESE,9.2,-,N/A,,Unknown,120,2012-10-20 11:52:00
7:52 AM,34.0,30.9,89,29.70,-9999.0,SE,8.1,-,N/A,,Unknown,140,2012-10-20 12:52:00
8:52 AM,37.0,33.1,86,29.71,-9999.0,SE,5.8,-,N/A,,Unknown,130,2012-10-20 13:52:00
9:52 AM,43.0,35.1,74,29.69,-9999.0,SSE,10.4,-,N/A,,Unknown,150,2012-10-20 14:52:00
10:52 AM,53.1,27.0,37,29.67,-9999.0,SSE,9.2,-,N/A,,Unknown,160,2012-10-20 15:52:00
11:52 AM,57.9,26.1,30,29.65,-9999.0,South,5.8,-,N/A,,Unknown,180,2012-10-20 16:52:00
12:52 PM,64.0,26.1,24,29.63,-9999.0,SSE,10.4,-,N/A,,Unknown,150,2012-10-20 17:52:00
1:52 PM,70.0,28.9,22,29.59,-9999.0,SE,10.4,-,N/A,,Unknown,130,2012-10-20 18:52:00
2:52 PM,73.0,28.9,20,29.57,-9999.0,SE,12.7,-,N/A,,Unknown,130,2012-10-20 19:52:00
3:52 PM,75.0,28.0,18,29.56,-9999.0,SE,15.0,-,N/A,,Unknown,140,2012-10-20 20:52:00
4:52 PM,75.0,30.0,19,29.55,-9999.0,SE,15.0,23.0,N/A,,Unknown,140,2012-10-20 21:52:00
5:52 PM,73.0,30.9,21,29.55,-9999.0,ESE,13.8,-,N/A,,Unknown,120,2012-10-20 22:52:00
6:52 PM,66.9,34.0,30,29.56,-9999.0,ESE,13.8,-,N/A,,Unknown,110,2012-10-20 23:52:00
7:52 PM,61.0,32.0,34,29.57,-9999.0,ESE,15.0,-,N/A,,Unknown,120,2012-10-21 00:52:00
8:52 PM,57.9,33.1,39,29.57,-9999.0,ESE,13.8,-,N/A,,Unknown,120,2012-10-21 01:52:00
9:52 PM,55.0,34.0,45,29.56,-9999.0,SE,16.1,-,N/A,,Unknown,130,2012-10-21 02:52:00
10:52 PM,53.1,34.0,48,29.56,-9999.0,SE,15.0,-,N/A,,Unknown,130,2012-10-21 03:52:00
11:52 PM,52.0,34.0,50,29.55,-9999.0,SE,15.0,-,N/A,,Unknown,130,2012-10-21 04:52:00